Location: Poughquag
(41.6090°N, 73.6820°W)
Time: 12:01:34
(UTC-04:00)

Transit 4A - Pass Details

Date: 01 June 2020
Orbit: 866 x 978 km, 66.8° (Epoch: 06 July)

Event Time Altitude Azimuth Distance (km) Brightness Sun altitude
Rises 08:55:01 0° 339° (NNW) 3,549 10.7 37.1°
Reaches altitude 10° 08:58:45 10° 2° (N) 2,629 10.4 37.8°
Maximum altitude 09:02:12 15° 36° (NE) 2,288 10.5 38.4°
Drops below altitude 10° 09:05:42 10° 71° (ENE) 2,667 11.3 39.1°
Sets 09:09:31 0° 93° (E) 3,631 11.9 39.8°
